Probability
0 0 0 0 0 0 0 0 0 0 0 0 0 0 0 0 0 1 2 4 6 4 1 1 3 4 4 5 6 7 9 11 9 6 4 4 4 3 3 3 2 1 1 1
0 0 0 0 0 0 0 0 0 0 0 0 0 0 0 0 0 0 1 4 5 3 1 1 3 4 5 7 7 6 8 11 10 8 6 5 4 3 3 3 2 1 1 1
0 0 0 0 0 0 0 0 0 0 0 0 0 0 0 0 0 0 1 2 3 2 1 1 3 4 5 6 6 5 7 10 11 10 8 7 6 4 4 3 1 1 1 2
0 0 0 0 0 0 0 0 0 0 0 0 0 0 0 0 0 1 1 3 4 4 3 3 3 4 3 3 5 7 9 11 11 11 10 8 7 5 5 3 1 1 2 2
0 0 0 0 0 0 0 0 0 0 0 0 0 0 0 0 0 1 2 3 4 5 5 4 4 3 2 2 5 10 14 15 14 13 12 11 8 7 5 4 3 2 3 3
0 0 0 0 0 0 0 0 0 0 0 0 0 0 0 1 1 2 3 3 3 5 5 5 5 4 4 5 8 14 19 20 19 16 14 13 10 7 5 5 4 4 4 4
0 0 0 0 0 0 0 0 0 0 0 0 0 0 1 2 3 4 4 4 3 5 7 7 6 7 7 9 12 18 22 23 21 19 16 13 10 6 5 6 7 6 5 5
0 0 0 0 0 0 0 0 0 0 0 0 0 0 1 2 3 3 3 3 4 5 7 7 7 8 8 10 14 20 23 22 21 21 18 13 10 6 6 8 8 6 6 6
0 0 0 0 0 0 0 0 0 0 0 0 0 0 1 2 2 2 1 2 4 6 7 8 8 9 8 9 13 18 22 22 23 22 19 15 12 9 7 8 7 6 6 6
0 0 0 0 0 0 0 0 0 0 0 0 0 0 1 3 3 2 1 2 5 8 9 10 11 11 9 9 12 15 19 21 22 22 19 15 14 12 10 9 9 9 9 9
0 0 0 0 0 0 0 0 0 0 0 0 0 0 2 4 5 4 5 6 9 11 13 14 15 14 14 14 14 16 18 19 19 19 18 16 16 15 14 14 15 15 14 14
0 0 0 0 0 0 0 0 0 0 0 0 0 1 2 4 6 7 10 13 13 13 16 18 19 20 21 20 20 21 20 19 17 17 19 20 21 21 20 21 23 23 22 20
0 0 0 0 0 0 0 0 0 0 0 0 0 1 3 4 8 11 16 19 16 16 20 24 26 27 27 28 30 30 28 25 22 22 23 26 30 31 28 27 28 30 30 29
0 0 0 0 0 0 0 0 0 0 0 0 1 2 3 6 10 15 20 22 20 21 27 31 33 32 32 34 37 38 36 34 33 33 32 33 36 37 35 32 33 36 36 35
0 0 0 0 0 0 0 0 0 0 0 1 3 3 3 7 12 17 23 25 24 26 32 37 37 35 34 36 39 41 42 42 42 43 43 41 39 38 37 36 37 39 39 37
0 0 0 0 0 0 0 0 0 1 1 2 2 2 3 8 14 20 24 25 26 27 31 34 35 33 33 35 38 41 43 45 46 48 48 47 43 40 38 36 37 38 37 36
0 0 0 0 0 0 0 0 0 1 2 2 1 1 3 9 16 21 22 24 27 28 29 29 29 28 29 33 38 42 45 47 48 49 49 48 45 41 38 36 35 36 36 35
0 0 0 0 0 0 0 0 0 1 1 1 1 3 5 10 16 18 20 24 27 30 29 28 27 27 26 29 35 43 48 49 48 47 47 46 43 39 37 35 34 35 35 35
0 0 0 0 0 0 0 0 0 0 1 2 4 6 9 13 15 16 19 23 25 27 28 27 26 26 26 26 31 38 44 46 46 44 43 42 39 36 34 34 33 33 32 32
0 0 0 0 0 0 0 0 0 0 1 4 6 9 12 14 16 19 22 24 23 23 24 24 25 27 29 29 30 33 37 39 39 37 35 34 33 32 31 31 31 31 30 29
0 0 0 0 0 0 0 0 1 2 5 7 8 10 12 14 18 22 26 27 24 23 23 23 24 29 32 32 31 31 33 34 33 31 28 28 28 29 29 29 30 30 29 29
0 0 0 0 0 1 1 1 3 7 11 12 11 10 10 13 19 24 26 25 24 24 23 22 23 25 28 29 29 30 30 29 30 29 27 26 27 27 28 29 28 27 27 27
1 1 1 1 1 3 4 4 6 9 13 15 15 13 12 14 18 21 21 20 20 20 20 19 20 20 21 24 28 29 27 27 29 29 28 27 26 27 28 28 26 24 22 22
2 2 2 2 3 5 5 6 7 8 11 15 16 16 16 16 16 15 15 15 16 16 15 16 18 20 21 24 27 27 25 26 28 28 26 25 24 25 25 24 22 20 18 18
4 4 4 4 5 6 6 6 6 7 9 12 14 15 16 15 13 12 12 13 14 13 12 14 18 21 24 25 26 23 21 23 25 26 24 22 21 21 19 17 15 14 13 14
5 5 4 5 7 6 6 6 6 7 9 10 12 13 13 13 12 11 11 13 14 12 11 13 16 20 24 24 23 21 19 19 23 24 23 20 18 17 15 12 10 8 8 10
Wind_Speed
10 11 11 10 9 8 7 7 6 3 0 4 4 4 3 7 8 9 10 10 11 10 10 11 11 10 10 9 9 9 8 8 7 6 6 6 5 5 4 5 6 6 6 6
10 13 10 7 7 9 10 10 8 5 2 4 5 4 3 5 8 9 10 11 11 11 11 10 11 11 11 11 10 10 9 9 9 6 5 4 4 4 4 4 5 6 6 6
13 6 6 9 10 11 11 10 9 6 4 7 7 7 5 6 7 8 9 9 10 11 12 12 12 12 11 11 11 9 10 9 9 8 6 5 5 4 5 6 5 6 7 7
11 7 8 11 11 12 11 8 8 8 9 7 7 7 4 5 7 8 9 9 10 11 11 11 12 12 12 11 11 10 10 9 9 9 8 9 7 6 6 5 5 6 7 7
9 8 10 12 10 10 8 5 7 9 10 10 9 9 4 6 6 7 8 9 10 10 11 11 12 11 11 11 10 10 10 10 9 9 9 9 7 6 5 5 6 6 6 7
9 6 7 8 8 8 6 7 8 10 11 12 10 10 7 4 5 4 5 7 8 8 10 11 11 11 10 10 10 10 10 10 10 10 10 9 8 7 6 7 6 6 6 6
10 10 8 7 9 10 11 11 9 11 11 10 6 9 5 2 2 2 2 4 5 7 9 10 11 11 11 11 11 11 11 10 10 10 10 10 9 9 8 8 7 7 6 6
10 10 9 8 10 9 12 13 12 10 9 7 8 9 4 1 1 2 2 2 4 6 7 9 10 11 11 11 11 11 11 10 10 10 9 9 9 8 7 8 6 6 5 5
6 6 5 5 7 10 10 12 12 12 12 11 7 6 5 4 4 3 1 2 3 4 6 8 9 10 10 11 11 11 11 10 10 10 9 8 8 8 7 6 7 6 5 5
6 7 6 6 8 7 9 8 9 12 11 12 11 11 7 5 5 3 2 1 2 3 5 7 8 9 9 9 10 10 10 10 9 9 9 8 8 8 7 6 6 6 6 5
7 9 7 8 8 8 9 10 9 9 10 12 11 6 1 3 3 3 2 2 2 3 4 5 6 7 8 8 9 9 9 9 9 8 8 7 8 8 8 7 7 6 6 6
4 8 8 8 5 6 9 9 11 11 11 11 12 5 3 1 0 1 1 2 2 2 3 4 5 5 6 7 8 8 8 8 8 8 8 8 7 7 8 8 7 7 7 7
3 7 9 9 10 9 8 8 10 11 11 12 14 7 5 3 1 1 1 2 2 2 3 3 4 4 4 4 5 6 7 7 7 8 8 8 8 8 7 7 7 7 7 7
6 8 10 11 5 4 8 9 10 13 12 13 14 11 5 3 2 2 1 1 1 2 3 3 3 3 2 3 4 5 6 6 7 7 8 7 7 7 7 7 7 7 6 6
6 8 8 9 8 8 10 11 11 14 14 15 12 11 8 4 3 2 2 2 1 2 2 2 2 2 2 3 3 3 4 4 5 6 7 7 7 6 6 7 6 6 6 6
4 7 8 10 9 9 11 11 12 13 13 14 13 11 4 2 2 2 2 2 2 1 1 1 2 2 2 3 2 2 3 3 4 5 5 6 6 6 6 6 6 6 6 5
5 6 8 10 7 11 13 10 11 10 10 11 11 7 3 3 3 3 3 3 2 1 1 1 1 1 1 2 2 2 2 3 3 3 4 4 5 5 5 5 5 5 6 5
7 7 7 9 9 14 3 1 4 7 7 7 7 5 4 3 2 3 2 2 1 0 1 1 1 1 1 1 2 2 2 3 3 3 3 4 4 4 4 4 5 5 4 4
8 8 7 8 12 11 5 2 4 7 7 4 5 3 2 1 3 3 1 0 0 0 0 0 1 0 1 1 2 2 2 2 3 3 3 3 3 4 4 4 4 4 4 4
7 9 9 9 11 10 2 3 2 6 7 1 2 3 2 3 6 2 1 0 1 1 1 1 1 1 1 1 2 2 2 2 2 2 2 2 2 3 4 4 4 3 3 3
8 9 11 12 11 7 3 2 3 8 1 4 2 2 3 4 5 2 0 1 2 2 1 1 1 1 1 1 2 2 2 2 2 2 2 2 2 2 3 3 3 3 3 3
7 7 8 9 11 5 4 2 4 4 5 4 4 3 4 4 3 1 1 1 2 2 1 1 1 1 1 1 2 2 2 1 2 2 3 2 2 1 1 2 2 3 3 3
6 5 4 5 3 3 3 4 4 5 5 5 5 4 4 4 3 2 1 1 1 1 1 1 1 1 1 1 1 2 1 2 2 3 3 2 2 1 1 1 2 3 3 3
4 3 6 6 5 4 4 3 3 4 5 6 5 5 4 4 4 3 2 2 2 2 2 1 1 1 1 1 1 1 1 1 2 3 2 2 2 2 2 1 2 2 2 2
5 4 6 8 7 6 5 3 5 5 6 5 4 4 4 4 4 3 2 2 2 2 2 2 1 1 1 1 1 1 1 2 2 3 2 2 2 2 2 1 0 1 0 1
6 7 7 6 4 6 6 5 7 7 6 5 4 5 4 3 3 3 2 2 2 2 2 2 2 2 2 1 1 1 1 2 2 2 3 2 2 2 2 2 2 4 2 2
Wind_Direction
197 219 223 228 235 263 268 262 257 262 236 267 266 269 198 182 194 191 191 191 194 195 187 185 190 190 187 187 189 190 189 180 184 184 186 183 180 182 182 185 179 188 195 188
202 223 234 245 239 243 245 248 249 242 210 262 270 269 233 191 202 203 199 197 197 192 188 188 192 192 192 190 191 191 191 186 190 185 189 192 185 189 184 187 179 195 196 194
224 222 216 223 224 230 238 246 252 255 243 232 252 241 208 188 200 204 208 204 201 198 192 190 193 196 194 193 195 195 193 190 192 185 187 183 182 196 185 189 188 194 196 198
233 224 218 225 227 236 237 239 251 250 249 242 245 265 206 191 193 203 205 204 203 199 194 192 192 194 196 194 193 194 192 192 191 191 199 198 197 198 192 192 184 187 194 199
218 217 222 230 232 237 252 248 244 248 253 259 238 259 232 191 215 211 203 202 204 199 194 192 192 192 193 190 188 188 189 192 193 198 200 205 208 203 195 193 183 195 195 202
240 218 236 242 235 228 223 226 231 240 247 246 245 256 247 214 233 231 192 193 199 198 196 192 188 186 189 187 186 183 183 190 194 198 202 204 205 205 201 199 195 201 200 202
218 215 212 228 219 203 215 228 229 225 226 237 222 248 256 261 264 274 236 192 191 195 194 188 186 185 188 189 188 186 186 191 193 196 201 202 206 206 207 209 205 212 210 204
219 210 199 214 231 223 220 236 247 253 247 230 206 239 236 202 209 229 236 196 187 186 185 184 184 183 188 189 189 187 189 192 193 195 197 201 206 210 211 210 219 214 221 218
246 222 175 203 226 238 222 232 253 263 265 265 243 235 220 206 208 206 176 150 156 167 174 174 175 180 185 189 189 189 189 192 194 196 195 198 204 214 216 211 217 219 218 218
271 256 211 195 212 220 251 243 239 248 253 254 244 240 238 212 227 220 198 162 136 150 167 167 172 177 182 186 186 190 191 194 196 196 199 196 200 204 212 217 216 220 218 219
266 254 228 207 221 221 212 223 239 250 259 262 258 244 168 212 223 231 196 143 146 160 163 166 167 173 177 180 182 188 191 193 195 198 198 200 196 198 202 208 214 213 216 213
269 260 252 233 218 253 242 236 235 244 245 254 269 260 110 138 196 225 141 123 128 151 157 162 158 165 175 181 182 186 191 194 195 194 195 198 197 198 202 204 208 210 212 215
298 258 244 217 198 200 224 232 244 251 252 251 255 245 135 141 156 133 110 115 138 145 144 147 150 159 173 183 188 189 194 195 194 192 195 196 199 200 202 205 205 206 206 212
278 261 265 271 286 251 234 234 241 247 248 250 252 261 233 210 226 205 167 171 171 151 145 142 137 151 166 177 188 193 194 193 193 194 195 196 201 201 203 205 205 205 206 212
270 254 257 273 281 274 264 253 244 246 257 263 264 260 265 261 259 236 213 204 189 170 162 153 154 154 165 170 175 182 189 190 191 194 193 192 195 199 203 204 204 202 206 210
278 270 262 257 255 260 261 256 250 249 253 256 261 263 279 287 238 212 200 198 202 185 194 191 169 165 166 161 167 171 178 179 184 189 189 187 193 199 199 202 200 200 204 208
248 251 259 257 249 258 246 246 249 246 248 253 256 270 273 246 227 227 219 207 217 200 213 234 232 203 175 170 161 164 166 171 174 176 183 184 188 191 192 196 194 199 203 201
245 252 256 261 252 249 254 10 268 259 252 254 263 271 266 263 239 234 202 189 182 263 234 236 224 209 172 148 138 147 148 157 165 166 170 173 176 179 182 186 191 197 202 202
233 236 252 255 250 252 227 231 260 258 251 255 261 267 260 241 209 195 161 293 282 272 289 286 315 259 129 141 148 154 158 160 164 164 163 160 170 175 178 178 184 192 195 202
206 223 244 245 258 255 224 77 333 273 241 180 260 262 263 250 245 215 103 299 300 299 268 269 251 196 171 179 171 183 181 177 178 169 155 155 166 181 184 185 191 195 198 205
204 215 233 244 250 255 43 7 250 244 337 23 326 275 252 258 297 348 230 279 283 279 257 238 219 180 173 199 200 197 193 188 174 155 153 162 173 185 186 188 194 198 207 205
239 231 226 240 246 240 44 308 280 350 358 332 316 293 278 286 296 278 213 257 276 280 256 228 204 187 194 219 218 213 204 178 166 161 155 162 176 202 176 178 195 202 206 208
251 281 278 261 276 18 344 329 336 323 317 316 306 297 284 280 277 261 255 263 282 292 283 250 223 207 233 242 233 229 205 182 181 173 163 157 150 155 165 174 190 204 199 212
222 275 263 258 252 275 292 304 323 327 321 318 308 297 282 280 281 278 268 273 269 274 268 261 233 242 260 261 238 205 192 194 183 176 165 162 164 170 157 191 206 216 203 203
280 245 248 254 264 276 259 291 317 319 315 317 312 294 285 284 277 269 273 277 276 263 259 252 253 249 253 261 255 218 185 196 194 191 188 187 188 177 167 173 14 265 359 347
241 248 258 269 289 287 290 302 307 305 307 312 310 300 292 283 272 268 266 261 266 271 260 252 258 262 260 239 241 242 214 188 192 196 199 203 193 176 181 162 131 74 83 82